Preview of NWS' New Version of Forecast
This preview is not operational and should not be used for support decisions.

Regional Weather Roundup (RWR)

Issued by National Weather Service (NWS)

                            
000
ASUS43 KLSX 230807
RWRMO 

WEATHER SUMMARY FOR MISSOURI
NATIONAL WEATHER SERVICE SPRINGFIELD MO
200 AM CST SAT FEB 23 2019

NOTE: "FAIR" INDICATES FEW OR NO CLOUDS BELOW 12,000 FEET WITH NO
       SIGNIFICANT WEATHER AND/OR OBSTRUCTIONS TO VISIBILITY.
       CURRENT SKY AND/OR WEATHER CONDITIONS ARE NOT AVAILABLE FOR
       CHILLICOTHE AND FARMINGTON.

MOZ001>031-035>038-043-044-053-054-230900-
...NORTHERN AND WESTERN MISSOURI...
  
CITY           SKY/WX    TMP DP  RH WIND       PRES   REMARKS
KANSAS CTY INT LGT RAIN  35  34  96 E8        29.92F VSB 1/2 WCI  29  
KANSAS C DTWN  LGT SNOW  37  34  89 NE3       29.93S FOG              
LEE'S SUMMIT   FOG       35  35 100 E5        29.92F VSB 1/2          
ST JOSEPH      RAIN      34  31  88 NE5       29.93F FOG     WCI  30  
CHILLICOTHE      N/A     35  35 100 N3        29.99F                  
KIRKSVILLE     CLOUDY    35  35 100 NE3       29.98F FOG              
     
$$
MOZ066>068-077>081-088>096-101>105-230900-
...SOUTHWEST MISSOURI...
  
CITY           SKY/WX    TMP DP  RH WIND       PRES   REMARKS
SPRINGFIELD    CLOUDY    43  41  93 SE16      29.89S FOG              
JOPLIN         LGT RAIN  45  44  97 SE7       29.86F FOG              
BRANSON        FOG       39  39 100 SE8       29.92F VSB<1/4          
               
$$
MOZ032>034-039>042-045>050-055>058-069>072-230900-
...CENTRAL MISSOURI...  
  
CITY           SKY/WX    TMP DP  RH WIND       PRES   REMARKS
COLUMBIA       FOG       38  37  97 SE13G23   29.95F VSB 1/2 WCI  30  
JEFFERSON CITY CLOUDY    39  37  92 SE9       29.97F FOG              
ROLLA          FOG       37  36  96 SE12      29.96F VSB 1/4 WCI  29  
SEDALIA        HAZE      37  32  82 E7        29.93F VSB 1/4          
WHITEMAN AFB   FOG       37  37 100 CALM      29.92F VSB 1/4          
WARRENSBURG    LGT RAIN  36  34  93 NE3       29.93F VSB 1/4          
OSAGE BEACH    FOG       40  40 100 SE5       29.95F VSB 1            
               
$$
MOZ051-052-059>065-230900-
...EAST CENTRAL MISSOURI...
  
CITY           SKY/WX    TMP DP  RH WIND       PRES   REMARKS
ST LOUIS INTL  CLOUDY    42  36  79 E13       30.02F                  
SPIRIT OF STL  CLOUDY    43  38  82 E8        30.00F                  
ST CHARLES     CLOUDY    40  36  86 E7        30.02F                  
                   
$$
MOZ072>076-082>087-097>100-106>115-230900-
...SOUTH CENTRAL AND SOUTHEAST MISSOURI...
  
CITY           SKY/WX    TMP DP  RH WIND       PRES   REMARKS
CAPE GIRARDEAU CLOUDY    47  42  83 NE6       30.02R                  
FARMINGTON     CLOUDY    41  39  93 E6        30.01R FOG              
POPLAR BLUFF   CLOUDY    44  43  96 N6        29.98F                  
WEST PLAINS    FOG       41  40  96 E7        29.96F VSB 1/4          
                                       
$$